Regional Weather Roundup
Issued by NWS Sioux Falls, SD

Home | Current Version | Previous Version | Graphics & Text | Print | Product List | Glossary Off
Versions: 1 2 3 4 5 6 7 8 9 10 11 12 13 14 15 16 17 18 19 20 21 22 23 24 25 26 27 28 29 30 31 32 33 34 35 36 37 38 39 40 41 42 43 44 45 46 47 48 49 50

000
ASUS43 KFSD 051202
RWRFSD

WEATHER ROUNDUP FOR SE SOUTH DAKOTA/SW MINNESOTA/NW IOWA
NATIONAL WEATHER SERVICE SIOUX FALLS SD
700 AM CDT WED AUG 05 2015

NOTE: "FAIR" INDICATES FEW OR NO CLOUDS BELOW 12,000 FEET WITH NO
SIGNIFICANT WEATHER AND OR OBSTRUCTIONS TO VISIBILITY.


SDZ038>040-050-052>070-051300-
SOUTHEAST SOUTH DAKOTA

CITY           SKY/WX    TMP DP  RH WIND       PRES   REMARKS
BROOKINGS      MOCLDY    55  52  88 CALM      30.06S
CHAMBERLAIN    MOCLDY    62  62 100 SE6       30.00S
6HR MIN TEMP:  62; 6HR MAX TEMP:  66;

HURON          MOCLDY   N/A N/A N/A SE7       30.01R
MADISON        FAIR      55  55 100 E6        30.05S
MITCHELL       PTCLDY    60  59  96 E3        30.01F
6HR MIN TEMP:  60; 6HR MAX TEMP:  66;

SIOUX FALLS    MOCLDY    61  55  81 E6        30.03S
6HR MIN TEMP:  60; 6HR MAX TEMP:  68;

WINNER         CLOUDY    66  63  90 SE8       29.99F
YANKTON        CLOUDY    64  63  94 E5        30.00R
$$

MNZ071-072-080-081-089-090-097-098-051300-
SOUTHWEST MINNESOTA

CITY           SKY/WX    TMP DP  RH WIND       PRES   REMARKS
FAIRMONT       MOCLDY    54  46  76 CALM      30.05R
JACKSON        MOCLDY    54  52  94 CALM      30.06S
LUVERNE        MOCLDY    59  54  82 CALM      30.05S
MARSHALL       MOCLDY    57  52  82 CALM      30.04S
6HR MIN TEMP:  55; 6HR MAX TEMP:  59;

MONTEVIDEO     CLEAR     55  54  94 S3        30.04F
PIPESTONE      MOCLDY    57  54  88 CALM      30.05S
REDWOOD FALLS  PTCLDY    55  53  93 S3        30.03S
WINDOM         MOCLDY    57  54  88 CALM      30.05R
WORTHINGTON    MOCLDY    54  48  82 CALM      30.06S
$$

IAZ001>003-012>014-020>022-031-032-NEZ013-014-SDZ071-051300-
NORTHWEST IOWA

CITY           SKY/WX    TMP DP  RH WIND       PRES   REMARKS
DENISON        CLOUDY    66  64  94 CALM      30.00R
ESTHERVILLE    MOCLDY    55  53  93 CALM      30.05R
SIOUX CITY     CLOUDY    68  63  84 E6        29.99F
6HR MIN TEMP:  66; 6HR MAX TEMP:  68; 6HR PCP:  0.01;

SPENCER        PTCLDY    58  53  84 E3        30.05R
6HR MIN TEMP:  57; 6HR MAX TEMP:  62;

STORM LAKE     CLOUDY    63  59  88 E3        30.04R
$$

ABBREVIATIONS USED IN REMARKS
   TC - TEMPERATURE IN CELSIUS
  WCI - WIND CHILL INDEX
   HX - HEAT INDEX
  VSB - VISIBILITY



USA.gov is the U.S. government's official web portal to all federal, state and local government web resources and services.